Tracking 18843 objects as of 21-November-2017
HD Live streaming from Space Station
objects crossing your sky now

FENGYUN 1C DEB

Track FENGYUN 1C DEB now!
10-day predictions


NORAD ID: 33655
Int'l Code: 1999-025DEQ
Perigee: 647.4 km
Apogee: 803.9 km
Inclination: 98.9 °
Period: 99.2 minutes
Semi major axis: 7096 km
RCS: 0.0112 m2 (small)
Launch date: May 10, 1999
Source: People's Republic of China (PRC)
Launch site: Taiyaun Space Center, China (TSC)

Note: This is SATELLITE DEBRIS
aabbcc
Your satellite tracking list
Your tracking list is empty




NASA's NSSDC Master Catalog

Two Line Element Set (TLE):
1 33655U 99025DEQ 17324.36385202  .00000968  00000-0  23308-3 0  9995
2 33655  98.8700 156.2397 0110306  39.9312 320.9930 14.52190889538668
Source of the keplerian elements: AFSPC